Time,TemperatureF,DewpointF,PressureIn,WindDirection,WindDirectionDegrees,WindSpeedMPH,WindSpeedGustMPH,Humidity,HourlyPrecipIn,Conditions,Clouds,dailyrainin,SolarRadiationWatts/m^2,SoftwareType,DateUTC
2013-02-06 00:01:00,59.0,54.0,-100.00,ENE,57,4.0,18.0,83,0.00,,,0.00,0.000000,,2013-02-06 10:01:00,
2013-02-06 00:11:00,59.0,54.0,-100.00,ENE,57,4.0,18.0,83,0.00,,,0.00,0.000000,,2013-02-06 10:11:00,
2013-02-06 00:21:00,59.0,54.0,-100.00,ENE,57,4.0,18.0,83,0.00,,,0.00,0.000000,,2013-02-06 10:21:00,
2013-02-06 00:31:00,59.0,54.0,-100.00,ENE,57,4.0,18.0,83,0.00,,,0.00,0.000000,,2013-02-06 10:31:00,
2013-02-06 00:52:00,58.0,54.0,-100.00,East,89,5.0,18.0,86,0.01,,,0.01,1.000000,,2013-02-06 10:52:00,
2013-02-06 01:01:00,58.0,54.0,-100.00,East,89,5.0,18.0,86,0.01,,,0.01,1.000000,,2013-02-06 11:01:00,
2013-02-06 01:11:00,58.0,54.0,-100.00,East,89,5.0,18.0,86,0.01,,,0.01,1.000000,,2013-02-06 11:11:00,
2013-02-06 01:22:00,58.0,54.0,-100.00,East,89,5.0,18.0,86,0.01,,,0.01,1.000000,,2013-02-06 11:22:00,
2013-02-06 01:31:00,58.0,54.0,-100.00,East,89,5.0,18.0,86,0.01,,,0.01,1.000000,,2013-02-06 11:31:00,
2013-02-06 02:01:00,59.0,55.0,-100.00,WNW,294,2.0,16.0,88,0.00,,,0.01,1.000000,,2013-02-06 12:01:00,
2013-02-06 02:12:00,59.0,55.0,-100.00,WNW,294,2.0,16.0,88,0.00,,,0.01,1.000000,,2013-02-06 12:12:00,
2013-02-06 02:22:00,59.0,55.0,-100.00,WNW,294,2.0,16.0,88,0.00,,,0.01,1.000000,,2013-02-06 12:22:00,
2013-02-06 02:32:00,59.0,55.0,-100.00,WNW,294,2.0,16.0,88,0.00,,,0.01,1.000000,,2013-02-06 12:32:00,
2013-02-06 03:01:00,57.0,55.0,-100.00,NNW,339,2.0,6.0,94,0.01,,,0.02,1.000000,,2013-02-06 13:01:00,
2013-02-06 03:11:00,57.0,55.0,-100.00,NNW,339,2.0,6.0,94,0.01,,,0.02,1.000000,,2013-02-06 13:11:00,
2013-02-06 03:21:00,57.0,55.0,-100.00,NNW,339,2.0,6.0,94,0.01,,,0.02,1.000000,,2013-02-06 13:21:00,
2013-02-06 03:31:00,57.0,55.0,-100.00,NNW,339,2.0,6.0,94,0.01,,,0.02,1.000000,,2013-02-06 13:31:00,
2013-02-06 03:52:00,57.0,56.0,-100.00,South,185,2.0,10.0,96,0.01,,,0.03,0.000000,,2013-02-06 13:52:00,
2013-02-06 04:01:00,57.0,56.0,-100.00,South,185,2.0,10.0,96,0.01,,,0.03,0.000000,,2013-02-06 14:01:00,
2013-02-06 04:11:00,57.0,56.0,-100.00,South,185,2.0,10.0,96,0.01,,,0.03,0.000000,,2013-02-06 14:11:00,
2013-02-06 04:21:00,57.0,56.0,-100.00,South,185,2.0,10.0,96,0.01,,,0.03,0.000000,,2013-02-06 14:21:00,
2013-02-06 04:31:00,57.0,56.0,-100.00,South,185,2.0,10.0,96,0.01,,,0.03,0.000000,,2013-02-06 14:31:00,
2013-02-06 04:52:00,59.0,57.0,-100.00,West,270,4.0,11.0,92,0.00,,,0.03,0.000000,,2013-02-06 14:52:00,
2013-02-06 05:01:00,59.0,57.0,-100.00,West,270,4.0,11.0,92,0.00,,,0.03,0.000000,,2013-02-06 15:01:00,
2013-02-06 05:11:00,59.0,57.0,-100.00,West,270,4.0,11.0,92,0.00,,,0.03,0.000000,,2013-02-06 15:11:00,
2013-02-06 05:21:00,59.0,57.0,-100.00,West,270,4.0,11.0,92,0.00,,,0.03,0.000000,,2013-02-06 15:21:00,
2013-02-06 05:31:00,59.0,57.0,-100.00,West,270,4.0,11.0,92,0.00,,,0.03,0.000000,,2013-02-06 15:31:00,
2013-02-06 06:01:00,58.0,54.0,-100.00,NNW,330,8.0,19.0,88,0.00,,,0.03,0.000000,,2013-02-06 16:01:00,
2013-02-06 06:11:00,58.0,54.0,-100.00,NNW,330,8.0,19.0,88,0.00,,,0.03,0.000000,,2013-02-06 16:11:00,
2013-02-06 06:21:00,58.0,54.0,-100.00,NNW,330,8.0,19.0,88,0.00,,,0.03,0.000000,,2013-02-06 16:21:00,
2013-02-06 06:32:00,58.0,54.0,-100.00,NNW,330,8.0,19.0,88,0.00,,,0.03,0.000000,,2013-02-06 16:32:00,
2013-02-06 06:52:00,58.0,55.0,-100.00,South,169,4.0,27.0,91,0.00,,,0.03,0.000000,,2013-02-06 16:52:00,
2013-02-06 07:01:00,58.0,55.0,-100.00,South,169,4.0,27.0,91,0.00,,,0.03,0.000000,,2013-02-06 17:01:00,
2013-02-06 07:11:00,58.0,55.0,-100.00,South,169,4.0,27.0,91,0.00,,,0.03,0.000000,,2013-02-06 17:11:00,
2013-02-06 07:21:00,58.0,55.0,-100.00,South,169,4.0,27.0,91,0.00,,,0.03,0.000000,,2013-02-06 17:21:00,
2013-02-06 07:32:00,58.0,55.0,-100.00,South,169,4.0,27.0,91,0.00,,,0.03,0.000000,,2013-02-06 17:32:00,
2013-02-06 08:01:00,59.0,58.0,-100.00,South,170,3.0,14.0,96,0.01,,,0.04,0.000000,,2013-02-06 18:01:00,
2013-02-06 08:11:00,59.0,58.0,-100.00,South,170,3.0,14.0,96,0.01,,,0.04,0.000000,,2013-02-06 18:11:00,
2013-02-06 08:22:00,59.0,58.0,-100.00,South,170,3.0,14.0,96,0.01,,,0.04,0.000000,,2013-02-06 18:22:00,
2013-02-06 08:32:00,59.0,58.0,-100.00,South,170,3.0,14.0,96,0.01,,,0.04,0.000000,,2013-02-06 18:32:00,
2013-02-06 09:01:00,60.0,59.0,-100.00,NW,323,2.0,8.0,97,0.01,,,0.05,42.000000,,2013-02-06 19:01:00,
2013-02-06 09:11:00,60.0,59.0,-100.00,NW,323,2.0,8.0,97,0.01,,,0.05,42.000000,,2013-02-06 19:11:00,
2013-02-06 09:21:00,60.0,59.0,-100.00,NW,323,2.0,8.0,97,0.01,,,0.05,42.000000,,2013-02-06 19:21:00,
2013-02-06 09:31:00,60.0,59.0,-100.00,NW,323,2.0,8.0,97,0.01,,,0.05,42.000000,,2013-02-06 19:31:00,
2013-02-06 10:01:00,66.0,60.0,-100.00,SSE,150,4.0,8.0,82,0.00,,,0.05,453.000000,,2013-02-06 20:01:00,
2013-02-06 10:11:00,66.0,60.0,-100.00,SSE,150,4.0,8.0,82,0.00,,,0.05,453.000000,,2013-02-06 20:11:00,
2013-02-06 10:21:00,66.0,60.0,-100.00,SSE,150,4.0,8.0,82,0.00,,,0.05,453.000000,,2013-02-06 20:21:00,
2013-02-06 10:31:00,66.0,60.0,-100.00,SSE,150,4.0,8.0,82,0.00,,,0.05,453.000000,,2013-02-06 20:31:00,
2013-02-06 11:01:00,65.0,59.0,-100.00,West,261,2.0,9.0,82,0.00,,,0.05,266.000000,,2013-02-06 21:01:00,
2013-02-06 11:11:00,65.0,59.0,-100.00,West,261,2.0,9.0,82,0.00,,,0.05,266.000000,,2013-02-06 21:11:00,
2013-02-06 11:21:00,65.0,59.0,-100.00,West,261,2.0,9.0,82,0.00,,,0.05,266.000000,,2013-02-06 21:21:00,
2013-02-06 11:31:00,65.0,59.0,-100.00,West,261,2.0,9.0,82,0.00,,,0.05,266.000000,,2013-02-06 21:31:00,
2013-02-06 12:01:00,64.0,61.0,-100.00,WSW,237,2.0,7.0,91,0.09,,,0.14,370.000000,,2013-02-06 22:01:00,
2013-02-06 12:11:00,64.0,61.0,-100.00,WSW,237,2.0,7.0,91,0.09,,,0.14,370.000000,,2013-02-06 22:11:00,
2013-02-06 12:21:00,64.0,61.0,-100.00,WSW,237,2.0,7.0,91,0.09,,,0.14,370.000000,,2013-02-06 22:21:00,
2013-02-06 12:31:00,64.0,61.0,-100.00,WSW,237,2.0,7.0,91,0.09,,,0.14,370.000000,,2013-02-06 22:31:00,
2013-02-06 13:01:00,65.0,61.0,-100.00,NNE,27,3.0,11.0,88,0.05,,,0.19,415.000000,,2013-02-06 23:01:00,
2013-02-06 13:11:00,65.0,61.0,-100.00,NNE,27,3.0,11.0,88,0.05,,,0.19,415.000000,,2013-02-06 23:11:00,
2013-02-06 13:21:00,65.0,61.0,-100.00,NNE,27,3.0,11.0,88,0.05,,,0.19,415.000000,,2013-02-06 23:21:00,
2013-02-06 13:31:00,65.0,61.0,-100.00,NNE,27,3.0,11.0,88,0.05,,,0.19,415.000000,,2013-02-06 23:31:00,
2013-02-06 14:01:00,64.0,60.0,-100.00,South,170,3.0,20.0,87,0.00,,,0.19,622.000000,,2013-02-07 00:01:00,
2013-02-06 14:11:00,64.0,60.0,-100.00,South,170,3.0,20.0,87,0.00,,,0.19,622.000000,,2013-02-07 00:11:00,
2013-02-06 14:21:00,64.0,60.0,-100.00,South,170,3.0,20.0,87,0.00,,,0.19,622.000000,,2013-02-07 00:21:00,
2013-02-06 14:31:00,64.0,60.0,-100.00,South,170,3.0,20.0,87,0.00,,,0.19,622.000000,,2013-02-07 00:31:00,
2013-02-06 15:01:00,63.0,59.0,-100.00,ESE,118,4.0,15.0,86,0.03,,,0.22,430.000000,,2013-02-07 01:01:00,
2013-02-06 15:11:00,63.0,59.0,-100.00,ESE,118,4.0,15.0,86,0.03,,,0.22,430.000000,,2013-02-07 01:11:00,
2013-02-06 15:21:00,63.0,59.0,-100.00,ESE,118,4.0,15.0,86,0.03,,,0.22,430.000000,,2013-02-07 01:21:00,
2013-02-06 15:31:00,63.0,59.0,-100.00,ESE,118,4.0,15.0,86,0.03,,,0.22,430.000000,,2013-02-07 01:31:00,
2013-02-06 15:52:00,66.0,58.0,-100.00,ESE,117,4.0,13.0,75,0.00,,,0.22,608.000000,,2013-02-07 01:52:00,
2013-02-06 16:01:00,66.0,58.0,-100.00,ESE,117,4.0,13.0,75,0.00,,,0.22,608.000000,,2013-02-07 02:01:00,
2013-02-06 16:11:00,66.0,58.0,-100.00,ESE,117,4.0,13.0,75,0.00,,,0.22,608.000000,,2013-02-07 02:11:00,
2013-02-06 16:21:00,66.0,58.0,-100.00,ESE,117,4.0,13.0,75,0.00,,,0.22,608.000000,,2013-02-07 02:21:00,
2013-02-06 16:31:00,66.0,58.0,-100.00,ESE,117,4.0,13.0,75,0.00,,,0.22,608.000000,,2013-02-07 02:31:00,
2013-02-06 17:02:00,68.0,60.0,-100.00,North,11,2.0,11.0,76,0.00,,,0.22,544.000000,,2013-02-07 03:02:00,
2013-02-06 17:11:00,68.0,60.0,-100.00,North,11,2.0,11.0,76,0.00,,,0.22,544.000000,,2013-02-07 03:11:00,
2013-02-06 17:21:00,68.0,60.0,-100.00,North,11,2.0,11.0,76,0.00,,,0.22,544.000000,,2013-02-07 03:21:00,
2013-02-06 17:31:00,68.0,60.0,-100.00,North,11,2.0,11.0,76,0.00,,,0.22,544.000000,,2013-02-07 03:31:00,
2013-02-06 18:01:00,64.0,59.0,-100.00,NNE,15,5.0,9.0,85,0.00,,,0.22,182.000000,,2013-02-07 04:01:00,
2013-02-06 18:11:00,64.0,59.0,-100.00,NNE,15,5.0,9.0,85,0.00,,,0.22,182.000000,,2013-02-07 04:11:00,
2013-02-06 18:22:00,64.0,59.0,-100.00,NNE,15,5.0,9.0,85,0.00,,,0.22,182.000000,,2013-02-07 04:22:00,
2013-02-06 18:31:00,64.0,59.0,-100.00,NNE,15,5.0,9.0,85,0.00,,,0.22,182.000000,,2013-02-07 04:31:00,
2013-02-06 19:01:00,61.0,56.0,-100.00,SE,135,5.0,14.0,85,0.01,,,0.23,86.000000,,2013-02-07 05:01:00,
2013-02-06 19:11:00,61.0,56.0,-100.00,SE,135,5.0,14.0,85,0.01,,,0.23,86.000000,,2013-02-07 05:11:00,
2013-02-06 19:21:00,61.0,56.0,-100.00,SE,135,5.0,14.0,85,0.01,,,0.23,86.000000,,2013-02-07 05:21:00,
2013-02-06 19:32:00,61.0,56.0,-100.00,SE,135,5.0,14.0,85,0.01,,,0.23,86.000000,,2013-02-07 05:32:00,
2013-02-06 20:02:00,60.0,54.0,-100.00,SE,125,6.0,13.0,82,0.00,,,0.23,6.000000,,2013-02-07 06:02:00,
2013-02-06 20:11:00,60.0,54.0,-100.00,SE,125,6.0,13.0,82,0.00,,,0.23,6.000000,,2013-02-07 06:11:00,
2013-02-06 20:22:00,60.0,54.0,-100.00,SE,125,6.0,13.0,82,0.00,,,0.23,6.000000,,2013-02-07 06:22:00,
2013-02-06 20:31:00,60.0,54.0,-100.00,SE,125,6.0,13.0,82,0.00,,,0.23,6.000000,,2013-02-07 06:31:00,
2013-02-06 20:52:00,62.0,56.0,-100.00,East,97,5.0,18.0,80,0.00,,,0.23,0.000000,,2013-02-07 06:52:00,
2013-02-06 21:01:00,62.0,56.0,-100.00,East,97,5.0,18.0,80,0.00,,,0.23,0.000000,,2013-02-07 07:01:00,
2013-02-06 21:11:00,62.0,56.0,-100.00,East,97,5.0,18.0,80,0.00,,,0.23,0.000000,,2013-02-07 07:11:00,
2013-02-06 21:21:00,62.0,56.0,-100.00,East,97,5.0,18.0,80,0.00,,,0.23,0.000000,,2013-02-07 07:21:00,
2013-02-06 21:31:00,62.0,56.0,-100.00,East,97,5.0,18.0,80,0.00,,,0.23,0.000000,,2013-02-07 07:31:00,
2013-02-06 21:52:00,61.0,54.0,-100.00,SW,222,8.0,25.0,78,0.00,,,0.23,0.000000,,2013-02-07 07:52:00,
2013-02-06 22:01:00,61.0,54.0,-100.00,SW,222,8.0,25.0,78,0.00,,,0.23,0.000000,,2013-02-07 08:01:00,
2013-02-06 22:11:00,61.0,54.0,-100.00,SW,222,8.0,25.0,78,0.00,,,0.23,0.000000,,2013-02-07 08:11:00,
2013-02-06 22:21:00,61.0,54.0,-100.00,SW,222,8.0,25.0,78,0.00,,,0.23,0.000000,,2013-02-07 08:21:00,
2013-02-06 22:31:00,61.0,54.0,-100.00,SW,222,8.0,25.0,78,0.00,,,0.23,0.000000,,2013-02-07 08:31:00,
2013-02-06 22:52:00,61.0,54.0,-100.00,SSW,212,9.0,22.0,78,0.00,,,0.23,0.000000,,2013-02-07 08:52:00,
2013-02-06 23:01:00,61.0,54.0,-100.00,SSW,212,9.0,22.0,78,0.00,,,0.23,0.000000,,2013-02-07 09:01:00,
2013-02-06 23:11:00,61.0,54.0,-100.00,SSW,212,9.0,22.0,78,0.00,,,0.23,0.000000,,2013-02-07 09:11:00,
2013-02-06 23:21:00,61.0,54.0,-100.00,SSW,212,9.0,22.0,78,0.00,,,0.23,0.000000,,2013-02-07 09:21:00,
2013-02-06 23:31:00,61.0,54.0,-100.00,SSW,212,9.0,22.0,78,0.00,,,0.23,0.000000,,2013-02-07 09:31:00,
2013-02-06 23:52:00,63.0,55.0,-100.00,ENE,76,9.0,24.0,76,0.00,,,0.23,0.000000,,2013-02-07 09:52:00,